User: anonymous   Login
Location: Unspecified
(0.0000°N, 0.0000°E)
Time: 13:25:42
(UTC+00:00)
Language:

Tiangong 1 - Orbit

View from above orbital plane
View from above orbital plane
View from above satellite
View from above satellite

Ground track
Ground track

The orbit data is extracted from the following two-line orbital elements,

1 37820U 11053A   17265.08546519  .00047410  00000-0  19284-3 0  9992
2 37820  42.7577 324.3766 0018805  45.9127  28.0644 15.85118122343317
Epoch (UTC): 22 September 2017 02:03:04
Eccentricity: 0.0018805
inclination: 42.7577°
perigee height: 303 km
apogee height: 328 km
right ascension of ascending node: 324.3766°
argument of perigee: 45.9127°
revolutions per day: 15.85118122
mean anomaly at epoch: 28.0644°
orbit number at epoch: 34331

The dashed part of the orbit path shows where the satellite is in the earth's shadow,  

DLR